Content
SEND FEEDBACK

Daily
Averages
Monthly
Summary
Mexico

CANCUN, QUINTANA ROO


Home > North America > Mexico > Quintana Roo
Elevation: 9 meters     Latitude: 21 09N     Longitude: 086 49W

WEATHER
 
SELECT A DAY
Number of Records: 163,723;   Date Range: 1/1/95 - 7/28/14
 
SHARE

PRINT THIS DATA

[ ← Previous Day ]
WEATHER ALMANAC - 10 MAY, 2013
[ Next Day → ]
[ °F ]   °C
Weather ElementAverageHighLow
Temperature28.1 °C30 °C (9:41 am)26 °C (1:44 am)
Dewpoint23.4 °C24 °C (6:43 am)22 °C (1:44 am)
Humidity75.7 %89 % (6:43 am)66 % (12:42 pm)
Barometer1015.6 hPa1016.9 hPa (10:41 am)1013.5 hPa (4:41 pm)
Wind Speed21.7 km/h33.3 km/h (2:41 pm)
Weather ElementAverage
Visibility11.3 km
Wind DirectionSE (133.9 °)

Weather ElementTotal
Precipitation---
Cooling Degree Days9.7 (Base 18.3)
Growing Degree Days18 (Base 10)
Averaged from 23 records on 10 May, 2013
WEATHER CONDITIONS BREAKOUT
WIND DIRECTION BREAKOUT
WEATHER BY HOUR - 10 MAY, 2013
[ °F ]   °C
Local TimeTemperatureDewpointHumidityBarometerVisibilityWind DirectionWind SpeedGust SpeedPrecipitationEventsConditions
1:44 AM26 °C22 °C78 %1016.6 hPa11.3 kmESE (120°)13 km/hClear
2:43 AM26 °C22 °C78 %1016.3 hPa11.3 kmEast (100°)11.1 km/hClear
3:46 AM26 °C23 °C83 %1015.6 hPa11.3 kmESE (120°)14.8 km/hPartly Cloudy
4:45 AM26 °C23 °C83 %1015.2 hPa11.3 kmESE (120°)16.7 km/hScattered Clouds
5:44 AM26 °C23 °C83 %1015.2 hPa11.3 kmSE (130°)18.5 km/hScattered Clouds
6:43 AM26 °C24 °C89 %1015.9 hPa11.3 kmSE (140°)13 km/hScattered Clouds
7:41 AM28 °C24 °C79 %1015.9 hPa11.3 kmESE (120°)16.7 km/hMostly Cloudy
8:42 AM29 °C24 °C74 %1016.6 hPa11.3 kmSE (130°)24.1 km/hMostly Cloudy
9:41 AM30 °C24 °C70 %1016.6 hPa11.3 kmSE (140°)11.1 km/hMostly Cloudy
10:41 AM30 °C24 °C70 %1016.9 hPa11.3 kmSE (130°)25.9 km/hMostly Cloudy
11:41 AM30 °C24 °C70 %1016.9 hPa11.3 kmSE (140°)25.9 km/hMostly Cloudy
12:42 PM30 °C23 °C66 %1016.3 hPa11.3 kmSE (130°)29.6 km/hScattered Clouds
1:42 PM30 °C23 °C66 %1015.6 hPa11.3 kmSSE (150°)24.1 km/hMostly Cloudy
2:41 PM30 °C23 °C66 %1014.6 hPa11.3 kmSSE (150°)33.3 km/hScattered Clouds
3:44 PM30 °C24 °C70 %1013.9 hPa11.3 kmSE (140°)33.3 km/hMostly Cloudy
4:41 PM29 °C24 °C74 %1013.5 hPa11.3 kmSSE (150°)29.6 km/hMostly Cloudy
5:42 PM29 °C24 °C74 %1013.9 hPa11.3 kmSE (140°)27.8 km/hMostly Cloudy
6:46 PM28 °C23 °C74 %1014.2 hPa11.3 kmSE (140°)24.1 km/hMostly Cloudy
7:42 PM28 °C23 °C74 %1014.9 hPa11.3 kmSE (140°)24.1 km/hMostly Cloudy
8:43 PM28 °C24 °C79 %1015.2 hPa11.3 kmSE (140°)20.4 km/hScattered Clouds
9:46 PM27 °C24 °C84 %1014.9 hPa11.3 kmSE (140°)24.1 km/hScattered Clouds
10:41 PM27 °C23 °C79 %1016.3 hPa11.3 kmSE (140°)22.2 km/hScattered Clouds
11:47 PM27 °C23 °C79 %1016.6 hPa11.3 kmSE (130°)16.7 km/hScattered Clouds
Hourly data recorded from MMUN, located 0 kilometers away from Cancun, Quintana Roo







STORIES FROM OUR PARTNERS